Stations météo

réclame
Mon MeteoGroup
Cap Cepet, France (7661): Température de l'air & dewpoint: 17.10.2018 07:00:00 - 23.10.2018 07:00:00 (CEST)Cap Cepet, France (7661): Vitesse du vent & gusts: 17.10.2018 07:00:00 - 23.10.2018 07:00:00 (CEST)Cap Cepet, France (7661): Direction du vent: 17.10.2018 07:00:00 - 23.10.2018 07:00:00 (CEST)Cap Cepet, France (7661): reduced air pressure: 17.10.2018 07:00:00 - 23.10.2018 07:00:00 (CEST)Cap Cepet, France (7661): visibility: 17.10.2018 07:00:00 - 23.10.2018 07:00:00 (CEST)Cap Cepet, France (7661): Quantités de précipitations: 17.10.2018 07:00:00 - 23.10.2018 07:00:00 (CEST)
Date & Time tt [°C] td [°C] ff [km/h] ff [knt] fx [km/h] fx [knt] dd ppp [hPa] vv [km] rr [mm]
23.10.2018 07:00:00 14,1 8,7 7 4 16 9 NW 1022,5 - 0,0
23.10.2018 06:00:00 14,5 9,9 13 7 16 9 WNW 1021,9 - 0,0
23.10.2018 05:00:00 14,3 9,3 9 5 14 8 WNW 1021,8 15 0,0
23.10.2018 04:00:00 15,1 10,1 14 7 19 11 ENE 1021,7 - 0,0
23.10.2018 03:00:00 15,2 10,4 4 2 13 7 E 1021,8 - 0,0
23.10.2018 02:00:00 15,3 11,7 5 3 9 5 NNW 1022,0 - 0,0
23.10.2018 01:00:00 15,1 10,1 5 3 8 4 NNW 1021,7 - 0,0
23.10.2018 00:00:00 15,9 10,9 0 0 10 5 N 1021,4 - 0,0
22.10.2018 23:00:00 15,4 12,2 3 2 9 5 W 1021,3 - 0,0
22.10.2018 22:00:00 16,1 9,3 0 0 12 7 N 1020,6 - 0,0
22.10.2018 21:00:00 16,0 9,6 10 5 16 9 W 1020,2 - 0,0
22.10.2018 20:00:00 15,5 9,8 10 6 20 11 W 1019,7 - 0,0
22.10.2018 19:00:00 15,1 9,9 12 7 19 10 W 1019,2 - 0,0
22.10.2018 18:00:00 16,6 9,5 14 8 32 17 W 1019,2 - 0,0
22.10.2018 17:00:00 17,6 9,2 22 12 38 21 W 1019,1 20 0,0
22.10.2018 16:00:00 19,0 11,3 22 12 34 18 W 1019,1 - 0,0
22.10.2018 15:00:00 19,9 10,9 11 6 20 11 SSW 1019,4 - 0,0
22.10.2018 14:00:00 20,2 11,7 9 5 20 11 SE 1020,3 - 0,0
22.10.2018 13:00:00 19,4 10,9 9 5 21 11 ENE 1020,8 - 0,0
22.10.2018 12:00:00 19,0 11,6 13 7 24 13 NE 1020,8 - 0,0
22.10.2018 11:00:00 16,6 11,5 16 9 27 15 NE 1020,9 - 0,0
22.10.2018 10:00:00 16,2 11,1 14 8 25 14 NE 1020,5 - 0,0
22.10.2018 09:00:00 16,1 10,4 13 7 26 14 NE 1020,1 - 0,0
22.10.2018 08:00:00 15,6 10,6 19 10 31 17 NE 1019,3 - 0,0
22.10.2018 07:00:00 15,7 11,3 23 12 34 19 NE 1019,3 - 0,0
22.10.2018 06:00:00 15,7 11,5 22 12 51 27 NE 1019,0 - 0,0
22.10.2018 05:00:00 16,3 12,1 29 16 57 31 NE 1018,4 15 0,0
22.10.2018 04:00:00 17,0 12,9 38 21 63 34 NE 1017,7 - 0,0
22.10.2018 03:00:00 17,7 14,0 49 27 75 40 NE 1017,2 - 0,0
22.10.2018 02:00:00 18,9 14,4 43 23 72 39 NE 1016,5 - 0,0
22.10.2018 01:00:00 19,1 16,3 46 25 74 40 NE 1016,0 - 0,0
22.10.2018 00:00:00 17,9 17,3 41 22 58 31 NE 1015,4 - 0,0
21.10.2018 23:00:00 18,0 15,1 34 18 48 26 NE 1014,6 - 0,0
21.10.2018 22:00:00 17,4 13,5 27 14 43 23 NE 1013,8 - 0,0
21.10.2018 21:00:00 18,4 11,2 4 2 21 12 WNW 1013,5 - 0,0
21.10.2018 20:00:00 18,5 11,1 16 8 44 24 W 1013,0 15 0,0
21.10.2018 19:00:00 19,3 11,3 30 16 48 26 W 1012,6 - 0,0
21.10.2018 18:00:00 20,5 13,5 25 13 36 19 W 1012,9 - 0,0
21.10.2018 17:00:00 20,7 13,9 17 9 33 18 W 1013,9 15 0,0
21.10.2018 16:00:00 22,1 14,0 23 12 36 19 W 1014,6 - 0,0
21.10.2018 15:00:00 22,6 15,4 18 10 29 16 W 1015,3 - 0,0
21.10.2018 14:00:00 22,6 16,6 14 7 23 13 SSW 1016,7 15 0,0
21.10.2018 13:00:00 23,2 13,4 10 5 17 9 WSW 1017,8 - 0,0
21.10.2018 12:00:00 22,1 16,1 8 4 14 8 W 1018,6 - 0,0
21.10.2018 11:00:00 20,4 15,4 4 2 9 5 WSW 1019,2 12 0,0
21.10.2018 10:00:00 19,2 14,0 5 3 7 4 W 1019,7 - 0,0
21.10.2018 09:00:00 18,3 12,9 6 3 9 5 SSW 1019,8 - 0,0
21.10.2018 08:00:00 17,8 12,5 0 0 6 3 N 1019,7 15 0,0
21.10.2018 07:00:00 18,2 12,2 3 2 12 7 NNE 1019,8 - 0,0
21.10.2018 06:00:00 18,6 12,3 7 4 10 6 ENE 1020,1 - 0,0
21.10.2018 05:00:00 18,6 12,6 8 4 10 5 NE 1020,6 - 0,0
21.10.2018 04:00:00 18,1 13,4 3 2 8 4 NNE 1020,9 - 0,0
21.10.2018 03:00:00 17,6 14,1 7 4 8 4 NW 1020,9 - 0,0
21.10.2018 02:00:00 18,4 13,5 3 2 8 4 NNE 1021,3 - 0,0
21.10.2018 01:00:00 18,0 14,1 4 2 12 7 NNW 1021,6 - 0,0
21.10.2018 00:00:00 18,1 13,6 7 4 13 7 NNW 1022,0 - 0,0
20.10.2018 23:00:00 18,4 13,7 8 4 16 9 WNW 1022,0 - 0,0
20.10.2018 22:00:00 18,8 13,4 12 7 20 11 WNW 1021,9 - 0,0
20.10.2018 21:00:00 19,5 13,9 16 8 19 10 W 1022,0 - 0,0
20.10.2018 20:00:00 19,5 13,2 10 6 15 8 W 1022,0 - 0,0
20.10.2018 19:00:00 19,5 14,9 9 5 12 6 W 1021,7 - 0,0
20.10.2018 18:00:00 20,4 13,8 7 4 16 9 WSW 1021,6 - 0,0
20.10.2018 17:00:00 22,0 14,4 10 5 21 11 SSW 1021,6 - 0,0
20.10.2018 16:00:00 22,8 14,9 10 5 19 11 SSW 1021,5 - 0,0
20.10.2018 15:00:00 23,8 13,9 10 6 17 9 SSW 1021,4 - 0,0
20.10.2018 14:00:00 24,3 11,9 7 4 13 7 SSE 1021,9 - 0,0
20.10.2018 13:00:00 24,6 13,5 5 3 11 6 SE 1022,3 - 0,0
20.10.2018 12:00:00 22,9 11,9 6 3 12 7 NE 1022,5 - 0,0
20.10.2018 11:00:00 21,4 12,8 10 5 16 9 NE 1022,3 20 0,0
20.10.2018 10:00:00 19,0 11,8 12 6 16 9 NE 1022,1 - 0,0
20.10.2018 09:00:00 17,8 12,9 12 6 16 9 ENE 1021,3 - 0,0
20.10.2018 08:00:00 17,4 13,1 10 5 19 10 NE 1020,7 - 0,0
20.10.2018 07:00:00 15,8 13,3 9 5 23 12 ENE 1020,3 - 0,0
20.10.2018 06:00:00 17,3 12,2 13 7 18 10 NE 1019,7 - 0,0
20.10.2018 05:00:00 17,7 13,2 12 7 21 12 ENE 1019,4 - 0,0
20.10.2018 04:00:00 17,7 13,6 16 9 23 12 NE 1019,5 - 0,0
20.10.2018 03:00:00 17,4 14,1 9 5 22 12 ENE 1019,6 - 0,0
20.10.2018 02:00:00 17,3 13,8 16 8 21 12 WNW 1019,4 - 0,0
20.10.2018 01:00:00 18,7 13,1 8 4 11 6 N 1019,5 - 0,0
20.10.2018 00:00:00 17,8 14,7 4 2 7 4 NNE 1019,3 - 0,0
19.10.2018 23:00:00 18,3 14,6 7 4 13 7 ENE 1019,1 - 0,0
19.10.2018 22:00:00 18,6 15,1 8 4 14 7 NE 1018,8 - 0,0
19.10.2018 21:00:00 19,2 14,9 8 5 15 8 NE 1018,6 - 0,0
19.10.2018 20:00:00 19,5 15,6 13 7 17 9 ENE 1018,4 - 0,0
19.10.2018 19:00:00 20,0 14,6 14 7 16 9 ENE 1017,6 - 0,0
19.10.2018 18:00:00 20,6 15,2 12 6 16 8 ENE 1016,9 - 0,0
19.10.2018 17:00:00 21,6 16,1 9 5 27 15 E 1016,8 15 0,0
19.10.2018 16:00:00 21,8 15,6 16 8 33 18 E 1016,4 - 0,0
19.10.2018 15:00:00 22,2 16,2 17 9 37 20 E 1016,1 - 0,0
19.10.2018 14:00:00 22,3 14,9 21 12 41 22 E 1016,6 - 0,0
19.10.2018 13:00:00 22,6 14,7 25 13 40 21 ENE 1017,0 - 0,0
19.10.2018 12:00:00 23,0 15,1 18 10 31 17 ENE 1017,2 - 0,0
19.10.2018 11:00:00 21,3 14,7 18 10 31 17 NE 1017,2 20 0,0
19.10.2018 10:00:00 19,6 15,0 21 12 30 16 NE 1016,6 - 0,0
19.10.2018 09:00:00 17,8 14,7 22 12 33 18 NE 1016,2 - 0,0
19.10.2018 08:00:00 16,2 15,2 22 12 31 17 NE 1015,2 - 0,0
19.10.2018 07:00:00 16,9 14,9 19 10 27 14 NE 1015,0 - 0,0
19.10.2018 06:00:00 16,7 15,4 15 8 29 15 NE 1015,0 - 0,0
19.10.2018 05:00:00 16,8 15,7 21 11 30 16 NE 1014,6 20 0,0
19.10.2018 04:00:00 16,6 15,8 21 12 29 15 ENE 1014,6 - 0,0
19.10.2018 03:00:00 16,9 15,9 19 10 27 14 ENE 1014,6 - 0,0
19.10.2018 02:00:00 17,5 15,7 14 8 22 12 NE 1014,8 - 0,0
19.10.2018 01:00:00 17,3 15,8 17 9 25 13 NE 1014,5 - 0,0
19.10.2018 00:00:00 17,6 15,9 16 9 23 12 NE 1014,3 - 0,0
18.10.2018 23:00:00 18,1 15,4 18 10 24 13 NE 1014,1 - 0,0
18.10.2018 22:00:00 18,4 15,3 18 10 24 13 NE 1013,6 - 0,0
18.10.2018 21:00:00 19,1 13,9 17 9 25 13 NE 1013,0 - 0,0
18.10.2018 20:00:00 19,7 14,3 13 7 24 13 NE 1012,9 20 0,0
18.10.2018 19:00:00 20,0 15,0 14 8 32 17 NE 1012,7 - 0,0
18.10.2018 18:00:00 20,9 15,4 18 10 32 17 ENE 1012,1 - 0,0
18.10.2018 17:00:00 22,0 16,3 16 9 34 18 E 1011,9 17 0,0
18.10.2018 16:00:00 22,2 15,8 21 11 40 21 ENE 1011,9 - 0,0
18.10.2018 15:00:00 22,4 16,0 24 13 49 26 ENE 1012,1 - 0,0
18.10.2018 14:00:00 22,8 15,6 23 12 44 24 ENE 1012,6 20 0,0
18.10.2018 13:00:00 22,7 16,3 24 13 44 24 ENE 1013,0 - 0,0
18.10.2018 12:00:00 22,9 16,9 23 13 39 21 NE 1012,9 - 0,0
18.10.2018 11:00:00 21,0 17,0 27 15 36 19 NE 1012,9 20 0,0
18.10.2018 10:00:00 19,4 18,1 25 14 36 19 NE 1013,1 - 0,0
18.10.2018 09:00:00 17,8 17,0 27 15 37 20 NE 1012,6 - 0,0
18.10.2018 08:00:00 17,0 16,7 26 14 35 19 NE 1012,5 20 0,0
18.10.2018 07:00:00 16,8 16,8 23 12 36 19 NE 1012,7 - 0,0
18.10.2018 06:00:00 16,8 16,8 26 14 37 20 NE 1012,4 - 0,0
18.10.2018 05:00:00 17,3 16,8 26 14 39 21 NE 1012,5 - 0,0
18.10.2018 04:00:00 17,6 17,0 28 15 39 21 NE 1012,5 - 0,0
18.10.2018 03:00:00 17,5 17,3 26 14 41 22 NE 1013,3 - 0,0
18.10.2018 02:00:00 17,2 17,2 29 16 44 24 NE 1013,8 - 0,0
18.10.2018 01:00:00 17,0 17,0 32 18 50 27 NE 1013,8 - 0,0
18.10.2018 00:00:00 17,3 17,3 29 16 48 26 NE 1014,1 - 0,0
17.10.2018 23:00:00 17,1 17,1 29 16 43 23 NE 1014,3 - 0,0
17.10.2018 22:00:00 17,1 17,1 30 16 42 23 NE 1013,9 - 0,0
17.10.2018 21:00:00 17,1 17,1 25 14 37 20 NE 1013,9 - 0,8
17.10.2018 20:00:00 17,5 17,5 23 13 44 24 NE 1014,2 60 1,8
17.10.2018 19:00:00 18,6 17,3 25 13 44 24 NE 1013,7 - 0,0
17.10.2018 18:00:00 18,8 17,5 23 13 40 22 NE 1013,6 - 0,0
17.10.2018 17:00:00 20,5 16,9 25 13 41 22 NE 1013,9 - 0,0
17.10.2018 16:00:00 21,4 16,4 26 14 44 24 NE 1013,8 - 0,0
17.10.2018 15:00:00 21,5 16,0 31 17 50 27 NE 1013,7 - 0,0
17.10.2018 14:00:00 21,6 16,3 24 13 43 23 NE 1014,3 20 0,0
17.10.2018 13:00:00 21,6 16,5 28 15 44 24 NE 1014,8 - 0,0
17.10.2018 12:00:00 21,8 17,0 23 12 44 24 NE 1015,6 - 0,0
17.10.2018 11:00:00 18,7 16,7 17 9 27 15 NE 1015,9 20 0,0
17.10.2018 10:00:00 18,4 15,8 19 11 27 15 NE 1015,8 - 0,0
17.10.2018 09:00:00 17,2 16,4 18 10 32 17 NE 1015,7 - 0,0
17.10.2018 08:00:00 17,3 16,2 23 12 38 21 NE 1015,5 - 0,0
17.10.2018 07:00:00 17,7 15,9 26 14 38 20 NE 1015,4 - 0,0

tt = Température de l'air
td = dewpoint
ff = Vitesse du vent
fx = gusts
dd = Direction du vent
ppp = reduced air pressure
vv = visibility
rr = Quantités de précipitations

stations d'obs. à proximité